Regional Weather Roundup
Issued by NWS Newport/Morehead, NC

Current Version | Previous Version | Graphics & Text | Print | Product List | Glossary Off
Versions: 1 2 3 4 5 6 7 8 9 10 11 12 13 14 15 16 17 18 19 20 21 22 23 24 25 26 27 28 29 30 31 32 33 34 35 36 37 38 39 40 41 42 43 44 45 46 47 48 49 50
000 ASUS42 KMHX 180813 RWRMHX WEATHER ROUNDUP FOR EASTERN NORTH CAROLINA NATIONAL WEATHER SERVICE NEWPORT/MOREHEAD CITY NC 300 AM EST THU JAN 18 2018 NOTE: "FAIR" INDICATES FEW OR NO CLOUDS BELOW 12,000 FEET WITH NO SIGNIFICANT WEATHER AND/OR OBSTRUCTIONS TO VISIBILITY NCZ015>017-031-032-045>047-102-103-180900- NORTH COAST CITY SKY/WX TMP DP RH WIND PRES REMARKS EDENTON MIX PCPN 24 21 89 N16 30.12F WCI 11 ELIZABETH CITY FOG 23 23 100 NW21 30.10F VSB 1 WCI 8 KITTY HAWK CLOUDY N/A N/A N/A N13G29 30.05R MANTEO CLOUDY 26 25 95 N12G21 30.08R WCI 16 $$ NCZ045>047-081-094-103-104-180900- CENTRAL COAST CITY SKY/WX TMP DP RH WIND PRES REMARKS FRISCO LGT SNOW 29 27 92 N12G26 30.04R FOG WCI 19 $$ NCZ095-097-098-100-101-180900- SOUTHERN COAST CITY SKY/WX TMP DP RH WIND PRES REMARKS BEAUFORT LGT SNOW 25 23 92 NW17G26 30.13R FOG WCI 12 CEDAR ISLAND NOT AVBL JACKSONVILLE FLURRIES 25 21 85 NW17G26 30.18R WCI 12 PINEY ISLAND NOT AVBL WILMINGTON CLOUDY 26 19 74 NW17G28 30.20R WCI 13 $$ NCZ011>013-027>030-043-044-078>080-089-090>093-098-180900- COASTAL PLAIN CITY SKY/WX TMP DP RH WIND PRES REMARKS AHOSKIE CLOUDY 22 13 69 NW7 30.18R CLINTON FAIR 26 21 82 CALM 30.23R ELIZABETHTOWN NOT AVBL GOLDSBORO CLOUDY 25 16 70 NW10 30.19R WCI 15 GREENVILLE MOCLDY 25 14 63 N7G20 30.20R HAVELOCK NOT AVBL KENANSVILLE CLOUDY 25 18 74 NW7 30.21R KINSTON CLOUDY 25 17 73 NW12G17 30.20R WCI 14 NEW BERN LGT SNOW 22 19 89 NW17G23 30.17R FOG WCI 8 RICHLANDS FLURRIES 24 18 77 N9G16 30.19R ROCKY MOUNT CLOUDY 23 18 81 NW10 30.21R WCI 12 WASHINGTON FLURRIES 23 18 82 NW6 30.17R WHITEVILLE CLOUDY 28 22 79 W5 30.24R $$ AMZ130-135-150-152-154-156-158-170-250-252-270-ANZ085-086-088-633-658-670-180900- MARINE OBSERVATIONS STATION/POSITION TIME TEMP WIND PRES WAVE SWELL AIR SEA DIR/SP/G HT/PER HT/PER (UTC) (F) (DEG/KT/KT) (MB) (FT/S) (FT/S) CHESAPEAKE LIGHT NOT AVBL 64 E VA BEACH 0750 34 56 350/ 33/ 39 1015.1 11/ 7 2/11 DUCK 0748 26 38 360/ 33/ 37 1016.4 2 E DUCK 0800 40 N/A 9/ 7 2/11 OREGON INLET 0742 27 39 330/ 21/ 30 1017.5 13E OREGON INLT 0748 43 N/A 12/ 7 5/11 HATTERAS CG 0748 28 42 350/ 28/ 33 1017.1 DIAMOND BUOY 0800 35 70 330/ 31/ 37 1015.9 CAPE LOOKOUT 0800 320/ 18/ 21 1020.0 BEAUFORT LAB 0748 24 45 340/ 13/ 20 1020.0 30 SE NEW RVR IN 0708 33 60 360/ 19/ 25 1020.0 30 SE NEW RVR IN 0800 60 N/A 7/ 6 2/11 27 SE WRIGHTSVLE 0708 33 58 350/ 23/ 45 1020.8 5 SE WRIGHTSVLE 0708 30 47 330/ 19/ 29 1021.0 225 S CAPE HAT 0750 61 70 270/ 31/ 37 1013.3 11/ 7 3/11 41 SE CHARLESTON 0800 37 67 330/ 23/ 31 1023.8 $$

USA.gov is the U.S. government's official web portal to all federal, state and local government web resources and services.